Location: Unspecified
(46.8523°N, 0.0000°E)
Time: 05:32:46
(UTC+00:00)

NOAA 16 DEB - Visible Passes

Search period start: 04 April 2026 00:00
Search period end: 14 April 2026 00:00
Orbit: 785 x 928 km, 98.9° (Epoch: 23 March)

Date Brightness Start Highest point End Pass type
(mag) Time Alt. Az. Time Alt. Az. Time Alt. Az.
4 Apr ? 04:13:57 10° NNE 04:19:38 50° E 04:25:20 10° S visible
5 Apr ? 04:03:39 10° NNE 04:09:11 42° E 04:14:44 10° SSE visible
6 Apr ? 03:53:23 10° NNE 03:58:43 35° E 04:04:03 10° SSE visible
7 Apr ? 03:43:10 10° NE 03:48:13 29° E 03:53:17 10° SSE visible
8 Apr ? 03:33:00 10° NE 03:37:42 24° E 03:42:24 10° SE visible
9 Apr ? 03:22:54 10° NE 03:27:09 20° E 03:31:23 10° SE visible
10 Apr ? 03:12:55 10° NE 03:16:34 17° E 03:20:12 10° SE visible
10 Apr ? 04:52:06 10° NNE 04:58:01 85° WNW 05:03:56 10° SSW visible
11 Apr ? 03:03:08 10° ENE 03:05:57 14° E 03:08:45 10° ESE visible
11 Apr ? 04:41:38 10° NNE 04:47:35 81° ESE 04:53:29 10° SSW visible
12 Apr ? 02:53:57 10° ENE 02:55:18 11° E 02:56:38 10° E visible
12 Apr ? 04:31:12 10° NNE 04:37:06 68° ESE 04:42:58 10° S visible
13 Apr ? 04:20:47 10° NNE 04:26:37 57° E 04:32:22 10° S visible
